Location: Burera
(21.3780°N, 81.9534°E)
Time: 00:59:32
(UTC+00:00)

Nadezhda 1 Rocket - Pass Details

Date: 13 August 2020
Orbit: 940 x 1006 km, 83.0° (Epoch: 22 September)

Event Time Altitude Azimuth Distance (km) Brightness Sun altitude
Rises 23:36:39 0° 189° (S) 3,715 6.8 -8.3°
Reaches altitude 10° 23:39:11 10° 191° (SSW) 2,770 6.1 -7.8°
Maximum altitude 23:45:32 70° 275° (W) 1,062 4.1 -6.4°
Drops below altitude 10° 23:51:53 10° 359° (N) 2,772 6.6 -4.9°
Sets 23:54:26 0° 1° (N) 3,717 7.3 -4.4°
